STARLINK-32041, 60202

Orbit data source: Space-Track

STARLINK-32041, 60202 is a payload satellite owned by SpaceX/Seattle (US) in LEO that was launched on Wed, 03 Jul 2024 UTC via an FALCON 9 launch vehicle from the Air Force Eastern Test Range (AFETR). Payload-class satellites include a variety of spacecraft equipped with specific instruments for various scientific and technological missions. These include communications satellites like Starlink; space stations such as the ISS; scientific satellites like the Hubble; Earth observation satellites from companies like Planet Labs, Umbra, and HawkEye 360; GPS; miniature CubeSats for education and research; and military/defense satellites.

Loading next visibility...
Identifier
60202, 2024-124V
Orbit
LEO
Country
Flag of USUS
Related business
Manufacturer
SpaceX/Seattle
Mission
Operational Commercial Communications
Bus & Motor
STARLINK V2M, Unknown motor
Mass
730 kg wet, ~700 kg dry
Launch date (UTC)
2024-07-03 (2 years ago)
Launch vehicle
FALCON 9
Launch site
Air Force Eastern Test Range (AFETR)
Object type
Payload
Rocket body
Debris
Shape & HBR
Box + 2 Pan, 17.7 m
Radar Cross Section
33.884 m², Large (>1 m²)

Expand to show TLE details & history
Last TLE update: 21 hours ago

TLE from 21 hours ago
0 STARLINK-32041
1 60202U 24124V   26125.24039567 -.00002503  00000-0 -72348-4 0  9995
2 60202  53.1603  59.8333 0001333  41.0488 319.0613 15.30226314104157
Epoch: 2026-05-05T05:46Z
TLE epoch observation values (Epoch: 2026-05-05T05:46:10.185Z)
Latitude
-0.00004°
Longitude
110.17276°
Altitude
475.346 km
Speed
7.63 km/s
True Right ascension
03h 59m 19s
True Declination
0° 00' 00"
Sunlit
Object was in daylight at epoch
Visualization orbit readout
Latitude
Unknown
Longitude
Unknown
Altitude
Unknown
Speed
Unknown
Apparent Right ascension
Unknown
Apparent Declination
Unknown
Sunlit
N/A
Visualization observer readout
Local Sidereal Time
10:15:10
Azimuth
Unknown
Elevation
Unknown
Doppler factor
Unknown
Orbital elements
Apogee altitude
476.306 km
Perigee altitude
474.479 km
Semi-major axis
6,853.53 km
Eccentricity
0.00013
Inclination
53.1603°
RAAN
59.8333°
Arg. of periapsis
41.0488°
True anomaly
319.05129°
Mean anomaly
319.0613°
Eccentric anomaly
319.05629°
Mean motion
3.82535 °/min
Orbital period
94.11 mins
BSTAR
-0.000072348
Loading maneuver chart data...
Computing Atmospheric mass density...
Loading historical data...
Loading historical data...
Loading historical data...
Loading historical data...
Loading historical data...
Loading historical data...
Loading historical data...

Documentation

Showing up to 5 results
|